Theta_e
328 324 320 316 303 301 296 299 301 304 302 304 305 303 301 303 301 299 317 326 328 333 342 347 349 352 352 352 351 351 351 349 349 350 350 348 345 344 345 345 346 345 344 341 338 337 336 335 332
320 320 317 310 298 293 294 299 301 303 304 304 304 303 302 301 309 314 316 328 328 332 342 344 347 351 352 351 350 350 351 351 350 349 347 344 342 340 339 341 343 342 341 338 335 332 332 328 328
320 319 309 303 298 293 294 300 300 303 305 302 302 304 303 305 309 313 322 328 327 329 341 344 347 351 351 351 350 350 350 351 351 347 346 344 341 339 336 336 338 339 336 333 330 328 326 325 324
316 313 308 297 296 297 297 300 303 303 304 304 303 301 305 310 311 317 323 328 325 328 337 342 347 351 351 350 350 350 351 350 350 348 346 343 339 335 334 334 338 336 333 329 326 325 323 322 321
314 309 298 296 297 297 298 302 302 302 302 302 303 300 302 309 315 318 323 327 325 327 331 342 345 349 350 350 350 349 350 350 350 349 346 343 341 335 332 334 334 333 329 325 325 323 322 321 319
306 304 296 294 297 299 300 304 302 302 302 302 299 300 302 310 312 313 323 324 326 327 330 340 339 343 346 348 349 348 349 349 349 348 344 341 339 335 332 332 331 328 325 324 324 323 321 319 317
304 301 296 296 297 298 301 304 298 301 301 301 303 299 305 306 311 314 317 323 325 327 330 333 338 339 338 342 344 345 347 347 347 344 343 340 336 334 332 332 328 326 324 325 323 322 319 317 315
306 302 296 295 296 297 301 301 302 300 301 304 304 298 299 304 312 313 317 317 323 326 330 331 334 337 339 340 336 339 342 342 342 340 336 333 331 332 329 328 328 325 325 325 322 320 318 315 312
309 297 294 297 297 298 302 298 302 302 300 302 304 302 306 310 312 312 314 316 320 325 327 330 331 334 335 337 337 334 336 335 334 332 329 327 328 326 322 323 326 326 326 323 321 319 316 312 308
302 297 298 301 300 299 301 299 300 299 299 300 301 306 308 310 308 309 311 313 316 319 324 328 329 330 332 336 334 336 334 331 329 329 325 328 326 323 321 319 324 326 324 322 319 317 313 309 299
303 298 302 301 303 303 301 300 301 299 297 300 300 302 304 306 306 307 308 310 313 318 322 326 327 329 329 330 331 334 332 328 327 328 324 325 326 320 315 314 315 313 315 311 311 307 301 298 297
298 302 303 304 304 302 299 302 300 300 300 304 304 305 304 304 303 306 306 308 308 314 319 323 325 327 327 328 328 330 331 330 326 326 324 322 324 317 313 313 313 312 309 307 304 300 298 298 298
299 301 303 303 302 301 303 300 300 300 304 305 305 305 303 303 304 305 306 307 309 309 313 319 322 323 325 326 326 326 326 327 326 328 326 322 323 314 312 311 311 312 308 306 302 298 297 297 296
301 300 300 301 301 301 299 299 298 300 303 303 303 302 302 303 304 304 305 305 307 309 310 316 320 321 323 323 324 324 324 324 324 322 322 322 321 314 311 309 310 310 307 304 300 297 296 296 295
300 295 298 299 300 299 300 295 296 301 301 300 300 300 302 303 304 303 304 305 306 308 310 312 316 320 320 321 323 323 322 322 321 322 322 322 323 314 311 308 308 307 306 302 298 296 296 295 295
296 295 290 297 298 298 296 289 298 299 300 299 300 300 301 303 304 304 304 304 305 304 308 310 313 316 318 318 320 322 321 320 320 320 320 320 319 314 309 307 306 306 303 298 296 294 293 293 292
292 287 290 294 300 297 294 291 298 301 300 299 299 299 301 301 302 303 305 305 305 305 304 307 310 312 315 316 317 319 319 318 318 317 317 317 316 314 308 305 304 304 299 296 295 293 293 291 291
288 289 292 292 297 297 295 293 297 299 299 299 298 299 299 300 301 302 302 303 303 304 304 304 307 310 311 311 313 314 314 315 315 315 314 315 314 312 308 304 302 302 297 294 294 292 292 292 291
293 291 290 294 298 295 294 295 296 299 298 297 298 296 298 299 300 300 300 300 300 300 301 302 302 304 306 306 307 308 308 311 312 312 313 313 311 310 307 303 300 299 295 294 294 292 291 291 291
293 290 289 294 297 294 292 292 296 298 298 297 296 297 297 297 297 297 296 297 297 297 298 298 300 301 302 303 305 306 306 306 308 310 311 311 310 308 306 302 299 298 295 293 293 292 290 290 290
292 290 291 290 292 293 290 288 292 296 296 297 296 296 295 294 293 293 293 293 294 294 295 296 297 298 300 300 301 301 302 302 301 301 304 307 309 307 305 302 299 297 295 294 292 292 291 289 289
288 293 292 290 287 282 290 279 288 293 292 294 293 292 292 292 293 293 293 292 292 293 294 294 295 296 298 298 298 297 297 297 298 299 301 304 306 305 304 303 300 297 296 293 293 293 293 290 289
290 292 290 289 286 284 286 282 287 292 289 290 291 292 291 292 292 292 292 293 293 293 293 293 292 293 295 296 295 295 294 296 297 298 298 299 301 302 303 301 300 297 296 293 292 291 290 292 289
293 290 290 289 286 279 287 285 286 288 289 289 291 292 292 292 291 292 292 292 292 292 291 291 291 291 292 293 294 293 292 292 293 293 294 295 297 298 299 299 298 297 296 293 292 291 291 292 292
289 286 281 280 278 279 289 286 289 291 292 292 292 291 290 289 289 289 289 290 290 291 290 291 290 290 291 291 291 291 291 291 291 291 291 291 293 294 296 296 295 296 296 295 293 291 290 291 291
289 288 280 274 276 280 286 281 289 292 293 293 291 290 289 288 288 288 288 288 289 289 289 289 290 288 289 289 290 291 290 290 290 290 291 291 291 293 294 293 294 295 295 295 293 291 290 290 291
289 286 291 284 280 280 283 288 291 292 291 291 289 287 286 286 287 287 288 288 288 288 288 288 288 288 287 287 288 288 289 288 288 288 288 289 290 292 291 291 291 292 293 293 293 290 289 289 290
288 289 282 284 276 271 279 281 285 288 289 288 286 285 286 285 285 285 286 286 287 287 286 287 287 286 286 286 286 287 287 287 287 286 285 285 286 288 289 289 289 290 290 291 290 290 289 288 290
285 284 285 286 283 277 276 279 289 288 289 286 286 286 285 284 283 284 284 286 286 286 285 284 285 285 284 284 284 284 285 286 285 284 283 283 284 285 286 287 287 287 288 288 288 288 288 287 288
289 288 288 281 278 282 283 282 290 288 287 287 286 286 286 286 284 283 284 283 284 283 283 283 283 284 284 284 283 283 284 284 284 283 282 282 282 283 284 285 285 286 287 287 286 287 289 288 288
Wind_Speed
7 9 4 3 1 3 4 5 2 6 3 4 2 3 3 6 4 0 2 6 3 10 13 12 15 15 14 13 13 12 12 12 13 13 13 12 9 7 6 6 6 8 8 8 6 6 7 7 6
7 8 2 4 2 2 3 3 7 6 4 2 2 4 4 1 6 8 6 6 5 10 14 12 12 15 15 14 14 13 12 12 14 13 13 11 8 6 5 3 5 7 7 5 6 6 6 6 6
7 7 2 2 3 3 3 4 4 3 6 2 2 1 2 2 6 5 5 9 6 8 13 13 15 16 15 15 15 15 13 13 13 13 12 13 9 8 5 2 3 6 5 5 5 6 6 6 6
4 2 4 2 6 4 4 6 7 6 5 4 3 7 3 5 2 5 6 9 7 8 9 13 16 16 16 15 15 13 12 12 13 13 14 14 9 5 4 3 6 6 5 5 5 6 6 6 4
3 4 3 4 8 2 2 4 3 4 3 3 4 3 1 4 9 7 7 7 7 8 6 12 16 13 14 15 15 14 13 12 13 14 15 12 8 7 5 5 5 7 6 6 7 7 7 6 5
4 2 3 5 7 4 4 6 4 4 4 5 1 5 2 7 8 6 7 7 7 8 7 9 11 11 9 14 14 14 14 13 12 14 14 12 7 7 6 6 6 5 5 6 7 7 6 6 5
2 2 6 7 7 5 3 6 2 5 6 2 4 4 1 5 6 8 6 7 6 7 7 7 8 9 9 10 11 11 11 12 10 15 14 11 7 8 8 6 7 7 7 8 7 7 7 7 6
3 2 5 4 5 6 5 3 1 4 6 2 3 4 3 1 7 4 4 5 7 5 8 7 8 9 8 7 10 10 10 9 11 11 10 11 8 8 7 6 6 8 9 9 9 7 6 6 6
3 3 5 8 4 4 7 2 3 2 4 7 5 4 6 8 6 4 2 3 4 5 7 8 7 9 9 8 9 10 10 11 11 8 9 11 4 5 6 7 8 9 9 9 8 8 8 7 5
2 3 6 7 8 7 10 7 8 6 7 10 6 10 9 10 7 7 7 7 8 7 6 7 8 7 8 9 8 9 7 5 5 6 6 6 6 5 7 7 9 8 8 9 9 9 8 8 3
5 5 7 10 9 7 8 9 8 9 8 11 10 9 2 7 8 9 9 9 10 10 7 8 8 8 7 6 5 5 4 4 4 7 6 6 4 3 4 4 4 4 7 3 5 4 3 5 3
8 8 9 9 8 1 5 9 11 10 12 11 10 11 9 10 7 9 10 9 7 9 11 10 9 7 7 5 4 5 5 5 4 5 8 5 4 4 5 4 5 5 4 5 5 3 4 2 2
7 10 10 10 7 7 7 9 11 15 17 14 15 12 10 9 9 8 9 9 9 9 7 10 11 8 6 7 4 5 5 5 5 6 6 5 5 5 5 4 5 5 5 4 5 4 3 3 3
8 8 9 9 16 12 10 10 4 11 11 12 9 9 9 10 10 8 9 7 8 8 7 7 10 9 8 7 7 4 4 5 5 5 6 7 5 5 5 5 5 5 6 5 5 5 5 4 3
6 7 10 15 12 9 6 5 10 16 7 7 7 10 9 8 9 8 10 9 9 7 9 7 8 9 8 7 6 4 5 4 5 5 8 10 9 7 7 5 5 5 5 7 5 5 5 4 4
7 7 6 6 5 3 7 6 12 4 8 10 14 11 9 11 10 8 9 7 6 2 8 7 6 8 8 6 5 4 3 4 4 5 5 8 8 7 6 5 5 5 5 5 5 4 4 4 4
8 6 9 9 6 7 6 5 7 10 11 12 14 10 9 7 15 17 18 16 16 13 11 2 6 6 6 4 2 3 3 2 2 1 3 5 6 7 5 5 5 7 5 5 5 3 5 4 4
6 9 10 12 7 11 11 11 10 7 11 16 10 10 7 16 19 22 23 21 21 18 14 11 6 7 6 4 3 2 2 1 2 2 2 5 5 6 4 3 4 5 5 5 5 5 4 4 5
10 9 13 11 10 12 12 13 10 14 12 14 13 3 18 20 19 20 19 18 19 18 18 17 11 8 5 3 3 2 1 1 2 2 4 5 6 7 7 4 3 3 4 6 7 4 8 5 5
9 11 13 9 8 9 10 15 21 19 13 2 10 13 16 17 19 18 17 17 17 16 16 17 16 14 8 5 3 3 2 2 2 1 3 3 4 6 6 6 6 7 5 6 5 4 2 3 7
10 8 11 10 8 7 8 9 8 3 11 17 21 18 19 17 14 14 15 15 14 16 15 15 16 15 12 10 6 5 4 4 4 3 2 2 4 4 6 6 5 5 5 7 7 7 9 5 6
8 3 4 6 6 4 9 7 6 8 12 16 17 15 14 13 12 13 13 15 15 13 11 13 14 15 14 15 9 9 4 3 3 3 3 3 5 5 5 6 6 6 5 6 7 7 9 6 8
4 3 3 7 5 6 9 5 7 17 11 11 11 12 11 9 10 11 11 12 11 10 10 10 13 14 14 13 12 8 8 5 4 4 8 6 2 3 4 4 5 6 4 6 7 6 7 8 6
3 3 9 8 4 2 4 3 5 5 15 8 11 10 9 8 8 8 8 9 9 8 9 9 11 12 12 11 11 11 10 9 7 7 6 6 4 4 5 5 4 5 6 6 6 7 9 10 10
1 4 4 4 1 6 7 6 4 5 12 16 14 10 9 7 7 7 8 8 7 8 7 7 9 12 11 10 9 10 9 8 7 7 6 7 5 3 5 5 6 5 6 6 6 7 7 9 10
7 2 4 6 3 7 8 6 4 11 13 14 13 10 9 8 7 8 8 7 7 7 8 9 8 9 10 12 12 10 9 6 6 6 6 7 7 7 8 6 5 7 7 7 6 5 6 7 10
2 2 3 3 3 2 5 6 5 10 12 11 11 9 8 7 7 7 7 6 6 7 8 8 7 7 7 7 6 7 7 7 7 7 6 5 7 9 10 8 7 7 7 7 8 5 7 8 9
2 2 2 3 3 5 6 5 5 11 12 11 8 8 7 6 7 6 5 6 5 5 5 5 4 3 4 5 4 5 5 6 7 7 8 8 9 10 10 9 7 9 8 7 7 7 7 8 9
1 1 3 1 4 4 7 6 5 12 10 9 7 6 6 5 5 5 4 4 4 3 4 4 5 5 5 5 5 5 4 4 3 4 6 8 9 10 10 8 9 8 10 8 7 7 8 10 11
4 6 4 5 5 5 4 9 7 12 9 7 6 5 5 3 5 4 3 3 2 2 3 4 4 6 4 3 4 5 5 4 5 4 5 6 6 8 8 8 9 10 9 8 8 10 10 11 13
Wind_Direction
284 243 271 308 263 201 269 80 356 17 58 34 1 4 316 274 306 49 168 174 257 129 142 158 158 160 161 158 154 153 156 160 161 154 145 121 117 116 88 85 100 109 104 96 94 84 81 66 48
310 309 261 271 249 260 77 101 83 55 42 17 282 255 239 98 73 124 142 147 239 139 144 164 164 163 162 161 160 162 167 174 166 161 128 127 129 127 126 100 110 118 112 105 99 84 78 67 47
274 271 269 233 269 6 8 97 85 83 133 217 289 141 303 23 90 111 113 136 208 144 147 166 165 167 167 165 165 170 178 179 171 160 150 152 151 141 149 135 171 134 124 124 100 92 80 66 51
305 225 264 269 297 17 6 350 32 331 103 123 342 292 125 72 85 83 134 144 176 153 152 154 165 172 172 169 169 175 181 175 167 163 158 157 156 152 152 189 186 164 150 130 122 108 90 76 55
237 262 276 235 257 101 359 360 80 300 320 165 166 271 267 109 112 130 147 150 175 154 158 153 163 176 181 177 176 177 179 181 177 175 163 164 163 164 162 181 151 149 150 142 122 107 94 88 75
283 201 285 273 359 9 93 64 1 275 283 92 242 252 227 131 134 150 147 165 185 154 157 149 165 170 185 184 183 183 185 187 186 170 158 168 153 185 184 181 163 159 150 140 121 113 107 96 84
243 296 262 304 303 299 135 88 266 348 322 263 159 298 26 157 116 131 168 168 190 166 155 152 165 180 180 188 184 187 192 195 192 167 167 144 182 198 190 191 178 172 166 150 141 134 133 121 109
315 300 276 259 270 322 108 124 48 319 299 211 52 256 23 75 86 123 171 201 178 198 159 181 166 177 187 189 190 186 192 193 176 168 159 115 190 173 172 179 183 182 169 159 150 146 135 115 97
306 299 277 278 298 272 117 175 136 267 283 287 172 228 176 145 138 161 176 244 207 207 178 181 194 177 185 191 191 195 192 182 176 172 159 124 159 163 172 176 185 189 168 164 156 156 142 130 124
220 234 262 314 339 332 333 339 321 307 296 282 292 242 156 158 171 188 199 211 211 217 213 182 191 198 183 193 178 178 177 181 174 167 160 142 172 182 175 173 180 179 158 165 167 159 150 164 163
207 226 276 311 335 26 329 314 295 283 275 260 267 302 346 203 203 198 217 216 205 200 192 199 196 193 188 192 155 171 166 167 175 167 155 153 169 193 159 135 146 136 142 155 152 142 185 227 164
253 253 265 275 282 338 285 315 303 281 261 267 285 276 284 291 271 214 217 213 225 202 196 186 194 192 195 179 181 161 177 170 174 166 158 161 170 173 160 147 166 157 164 169 158 176 222 153 96
271 257 265 291 304 278 287 272 276 281 277 273 276 270 271 273 253 242 259 230 209 221 205 187 178 185 192 193 180 178 173 172 169 158 163 166 169 170 156 170 168 168 162 172 168 173 175 176 173
303 341 306 283 272 263 254 270 306 276 277 285 272 288 274 251 238 235 226 239 216 208 218 185 175 181 177 191 196 175 179 177 158 161 178 186 172 167 168 183 179 172 160 169 159 168 174 182 166
332 309 284 270 264 236 142 280 234 253 301 297 304 287 276 299 310 265 224 216 212 198 193 202 178 169 179 186 185 197 183 176 167 171 177 187 189 175 172 179 182 175 167 162 160 171 164 162 174
273 254 281 264 202 129 111 262 287 357 348 323 290 277 298 298 279 318 20 19 292 142 170 178 150 155 168 178 181 183 205 178 175 173 176 172 176 174 174 175 185 178 160 155 155 161 166 175 171
228 255 258 285 247 143 168 238 264 288 285 266 266 282 268 294 47 34 32 29 28 21 28 62 138 142 134 157 161 171 192 195 183 172 165 175 172 189 171 178 183 175 163 159 162 172 160 170 177
275 296 307 306 317 312 298 264 252 288 288 287 292 293 286 73 54 46 40 33 31 23 20 19 47 98 116 106 136 104 155 196 145 184 180 176 173 186 196 200 191 174 159 165 170 168 182 165 167
273 314 302 303 308 290 286 302 308 277 279 284 283 287 85 72 62 49 37 36 31 30 29 20 21 24 55 79 86 55 211 201 174 196 196 194 181 177 184 181 199 183 180 192 188 163 174 187 159
308 295 288 280 294 336 321 301 278 284 279 14 64 65 77 66 52 45 39 32 36 28 31 28 21 23 20 34 36 63 48 14 34 322 204 212 207 181 179 188 194 183 169 189 197 202 150 179 172
270 267 299 314 338 289 302 276 259 57 75 79 63 68 57 56 55 46 44 37 30 34 32 29 26 24 22 13 22 22 28 22 17 351 314 234 208 183 187 196 202 209 182 197 187 185 180 191 212
279 271 325 320 342 286 42 272 307 275 86 70 70 64 56 52 47 43 38 41 35 26 22 36 32 30 25 20 23 24 25 24 355 344 344 271 197 202 205 203 202 209 194 202 210 199 198 161 196
232 46 302 270 260 306 250 263 253 102 107 97 84 79 74 69 66 51 50 44 38 29 26 23 30 28 25 32 31 25 19 2 344 353 348 342 307 234 237 225 218 221 219 212 204 209 209 211 190
61 262 252 248 201 290 296 251 293 28 135 111 102 97 91 77 67 62 51 48 38 25 23 27 31 26 21 24 30 31 18 4 2 358 355 337 305 252 227 232 242 237 230 221 215 219 214 216 221
191 264 318 346 71 213 43 354 294 59 138 135 125 108 99 86 77 59 57 43 42 39 35 34 24 25 19 25 24 27 17 10 11 359 348 332 320 321 289 245 228 238 235 239 223 218 214 217 225
196 285 171 242 199 264 343 253 252 113 97 101 101 101 87 75 60 63 58 53 47 33 30 30 39 35 19 13 7 9 18 12 1 356 357 352 332 332 331 328 276 246 239 242 240 229 225 221 228
87 207 323 277 57 313 226 240 97 121 122 116 103 86 70 63 65 65 52 53 58 42 36 44 33 36 24 22 12 3 8 3 358 353 350 341 336 338 336 324 323 302 266 241 239 238 233 231 230
154 23 328 15 263 242 263 266 264 163 141 109 88 89 75 58 60 60 72 68 46 64 58 57 52 73 39 38 10 2 1 6 351 351 350 342 334 332 330 337 332 319 301 277 253 248 245 235 236
154 243 192 138 153 240 272 268 97 90 97 97 101 97 93 100 86 68 54 55 73 75 54 40 35 35 27 19 348 344 345 353 333 327 327 327 323 322 318 340 338 318 312 299 274 255 249 244 247
289 284 250 201 224 231 269 250 111 112 107 118 139 131 143 137 130 131 117 89 60 45 37 30 25 17 14 352 325 323 325 328 298 283 286 283 277 286 304 331 332 325 316 301 290 276 266 258 253